Leadville, CO

4:28 PM MST on November 16, 2019 (GMT -0700)
Lake County

Weather History for KLXV - October, 2019

Change the Weather History Date:

Tuesday, October 22, 2019

  Actual Average Record
Temperature  
Mean Temperature 30 °F -  
Max Temperature 37 °F 47 °F 66 °F (2003)
Min Temperature 22 °F 22 °F 7 °F (2007)
Degree Days  
Heating Degree Days 35 31  
Month to date heating degree days 638 598  
Since 1 July heating degree days 1672 1896  
Cooling Degree Days 0 0  
Month to date cooling degree days 0 0  
Year to date cooling degree days 0 0  
Moisture  
Dew Point 19 °F    
Average Humidity 66    
Maximum Humidity 75    
Minimum Humidity 56    
Precipitation  
Precipitation T in 0.03 in 0.33 in (2015)
Month to date precipitation 0.51 0.64  
Year to date precipitation 13.36 10.67  
Sea Level Pressure  
Sea Level Pressure 30.21 in    
Wind  
Wind Speed 11 mph (NNW)    
Max Wind Speed 18 mph    
Max Gust Speed 31 mph    
Visibility 10 miles    
Events Snow    
T = Trace of Precipitation, MM = Missing Value Source: NWS Daily Summary

Daily Weather History Graph

Daily Weather History Graph

Search for Another Location

Airport or City:

Astronomy

Oct. 22, 2019 Rise Set
Actual Time 7:22 AM MDT 6:16 PM MDT
Civil Twilight 6:54 AM MDT 6:44 PM MDT
Nautical Twilight 6:23 AM MDT 7:15 PM MDT
Astronomical Twilight 5:52 AM MDT 7:46 PM MDT
Moon 12:38 AM MDT (10/22) 3:25 PM MDT (10/22)
Length of Visible Light 11h 49m
Length of Day
10h 54m
Last Quarter, 36% of the Moon is Illuminated
Oct 22
Last Quarter
Oct 27
New
Nov 4
First Quarter
Nov 12
Full
Nov 19
Last Quarter

Hourly Weather History & Observations

Time (MDT) Temp. Windchill Dew Point Humidity Pressure Visibility Wind Dir Wind Speed Gust Speed Precip Events Conditions
12:53 AM 23.0 °F 11.7 °F 15.1 °F 72% 30.19 in 10.0 mi North 11.5 mph 18.4 mph 0.00 in   Overcast
1:53 AM 23.0 °F 12.4 °F 16.0 °F 74% 30.21 in 6.0 mi NNW 10.4 mph 21.9 mph 0.00 in Snow Light Snow
2:28 AM 23.0 °F 11.1 °F 16.0 °F 74% 30.27 in 8.0 mi NNW 12.7 mph 18.4 mph 0.00 in Snow Light Snow
2:53 AM 23.0 °F 12.4 °F 16.0 °F 74% 30.19 in 9.0 mi NNW 10.4 mph 23.0 mph 0.00 in   Overcast
3:08 AM 23.0 °F 10.1 °F 15.1 °F 72% 30.28 in 8.0 mi North 15.0 mph 23.0 mph 0.00 in Snow Light Snow
3:44 AM 23.0 °F 12.4 °F 16.0 °F 74% 30.28 in 8.0 mi NNW 10.4 mph 20.7 mph 0.00 in Snow Light Snow
3:53 AM 23.0 °F 13.1 °F 16.0 °F 74% 30.20 in 9.0 mi NW 9.2 mph 20.7 mph 0.00 in Snow Light Snow
4:31 AM 23.0 °F 11.1 °F 15.1 °F 72% 30.28 in 10.0 mi NNW 12.7 mph 21.9 mph 0.00 in   Overcast
4:53 AM 23.0 °F 13.1 °F 16.0 °F 74% 30.22 in 10.0 mi NW 9.2 mph 20.7 mph 0.00 in   Overcast
5:53 AM 23.0 °F 10.6 °F 15.1 °F 72% 30.24 in 10.0 mi WNW 13.8 mph 28.8 mph N/A   Overcast
6:53 AM 24.1 °F 13.1 °F 15.1 °F 69% 30.25 in 10.0 mi NNW 11.5 mph 19.6 mph N/A   Overcast
7:12 AM 24.1 °F 12.5 °F 15.1 °F 69% 30.31 in 10.0 mi North 12.7 mph 24.2 mph N/A   Overcast
7:53 AM 23.0 °F 13.9 °F 15.1 °F 72% 30.26 in 10.0 mi North 8.1 mph - N/A   Overcast
8:08 AM 23.0 °F 15.8 °F 16.0 °F 74% 30.33 in 10.0 mi North 5.8 mph - N/A   Overcast
8:53 AM 25.0 °F 16.3 °F 17.1 °F 72% 30.27 in 10.0 mi NNW 8.1 mph - N/A   Overcast
9:53 AM 27.0 °F 20.5 °F 18.0 °F 69% 30.27 in 10.0 mi NNW 5.8 mph - N/A   Overcast
10:26 AM 28.9 °F 23.9 °F 19.0 °F 67% 30.36 in 10.0 mi North 4.6 mph - N/A   Overcast
10:53 AM 28.9 °F 19.8 °F 19.0 °F 67% 30.26 in 10.0 mi NNW 10.4 mph 20.7 mph N/A   Overcast
11:53 AM 30.0 °F 21.7 °F 21.0 °F 69% 30.24 in 10.0 mi NNW 9.2 mph 23.0 mph N/A   Overcast
12:19 PM 30.0 °F 21.1 °F 21.0 °F 69% 30.34 in 10.0 mi NW 10.4 mph 23.0 mph N/A   Overcast
12:53 PM 30.9 °F 19.8 °F 21.0 °F 67% 30.21 in 10.0 mi WNW 16.1 mph 27.6 mph N/A   Overcast
1:53 PM 32.0 °F 21.2 °F 21.9 °F 66% 30.16 in 10.0 mi WNW 16.1 mph 23.0 mph N/A   Clear
2:37 PM 32.0 °F 24.8 °F 21.9 °F 66% 30.29 in 10.0 mi NW 8.1 mph - N/A   Overcast
2:53 PM 33.1 °F 25.5 °F 21.9 °F 64% 30.14 in 10.0 mi North 9.2 mph 20.7 mph N/A   Overcast
3:53 PM 33.1 °F 26.1 °F 21.9 °F 64% 30.14 in 10.0 mi North 8.1 mph - N/A   Overcast
4:25 PM 35.1 °F 25.9 °F 23.0 °F 61% 30.27 in 10.0 mi NNW 13.8 mph 23.0 mph N/A   Overcast
4:53 PM 37.0 °F 28.1 °F 23.0 °F 57% 30.10 in 10.0 mi North 15.0 mph 23.0 mph N/A   Overcast
5:53 PM 34.0 °F 26.6 °F 24.1 °F 67% 30.10 in 10.0 mi NNE 9.2 mph - N/A   Overcast
6:53 PM 32.0 °F 24.8 °F 24.1 °F 73% 30.12 in 10.0 mi NNE 8.1 mph - N/A   Overcast
7:53 PM 32.0 °F 22.5 °F 23.0 °F 69% 30.12 in 10.0 mi NNE 12.7 mph 23.0 mph N/A   Overcast
8:53 PM 32.0 °F 21.6 °F 24.1 °F 73% 30.10 in 8.0 mi NNE 15.0 mph 21.9 mph 0.00 in Snow Light Snow
9:53 PM 30.9 °F 23.5 °F 24.1 °F 76% 30.11 in 9.0 mi North 8.1 mph - 0.00 in   Overcast
10:53 PM 32.0 °F 22.5 °F 23.0 °F 69% 30.05 in 10.0 mi NE 12.7 mph - N/A   Overcast
11:53 PM 32.0 °F 23.0 °F 21.9 °F 66% 30.03 in 10.0 mi NNE 11.5 mph - N/A   Overcast